This demonstration page uses our WeatherBlox Daily Observations layout. Learn more.

Left ArrowRight Arrow

Hourly Observations for February 15, 2019

Temp ( °F °C ) Dew Point ( °F °C ) Humidity (%) Winds ( mph kmh ) Pressure ( in mb ) Visibility ( mi km ) Precip ( " mm )
12:15 am 00:15 Cloudy 48 9 46 8 94 94 WSW 20 31 29.63 1004 10 16 N/A
12:16 am 00:16 Cloudy 48 9 46 8 94 94 WSW 22 35 29.63 1004 10 16 N/A
12:35 am 00:35 Cloudy 48 9 46 8 94 94 WSW 16 26 29.63 1004 10 16 N/A
12:56 am 00:56 Cloudy 46 8 46 8 100 100 W 16 26 29.65 1004 10 16 N/A
1:15 am 01:15 Cloudy 46 8 45 7 93 93 W 18 30 29.66 1004 10 16 N/A
1:16 am 01:16 Cloudy 46 8 45 7 93 93 W 21 33 29.66 1004 10 16 N/A
1:35 am 01:35 Mostly Cloudy 43 6 43 6 100 100 W 16 26 29.67 1005 10 16 N/A
1:55 am 01:55 Partly Cloudy 41 5 41 5 100 100 W 16 26 29.69 1005 10 16 N/A
1:56 am 01:56 Partly Cloudy 41 5 41 5 100 100 W 18 30 29.69 1005 10 16 N/A
2:15 am 02:15 Partly Cloudy 41 5 39 4 93 93 W 16 26 29.70 1006 10 16 N/A
2:16 am 02:16 Partly Cloudy 41 5 39 4 93 93 W 16 26 29.70 1006 10 16 N/A
2:35 am 02:35 Mostly Cloudy 39 4 37 3 93 93 WNW 16 26 29.72 1006 10 16 N/A
2:55 am 02:55 Cloudy 37 3 36 2 93 93 WNW 22 35 29.73 1007 10 16 N/A
2:56 am 02:56 Cloudy 37 3 36 2 93 93 WNW 20 31 29.73 1007 10 16 N/A
3:15 am 03:15 Cloudy 34 1 34 1 100 100 WNW 20 31 29.75 1007 7 11 N/A
3:35 am 03:35 Cloudy 34 1 34 1 100 100 WNW 16 26 29.76 1008 7 11 N/A
3:55 am 03:55 Cloudy 34 1 34 1 100 100 W 20 31 29.77 1008 5 8 N/A
3:56 am 03:56 Cloudy 32 undefined 32 undefined 100 100 WNW 18 30 29.77 1008 5 8 N/A
4:15 am 04:15 Cloudy 32 undefined 32 undefined 100 100 WNW 21 33 29.78 1009 5 8 N/A
4:35 am 04:35 Cloudy 32 undefined 32 undefined 100 100 WNW 16 26 29.80 1009 5 8 N/A
4:55 am 04:55 Cloudy 32 undefined 32 undefined 100 100 WNW 20 31 29.80 1009 7 11 N/A
4:56 am 04:56 Cloudy 32 undefined 32 undefined 100 100 WNW 21 33 29.80 1009 7 11 N/A
5:15 am 05:15 Cloudy 30 -1 30 -1 100 100 WNW 17 28 29.81 1009 7 11 N/A
5:35 am 05:35 Cloudy 30 -1 30 -1 100 100 WNW 17 28 29.82 1010 7 11 N/A
5:36 am 05:36 Cloudy 30 -1 30 -1 100 100 WNW 18 30 29.82 1010 7 11 N/A
5:55 am 05:55 Cloudy 30 -1 28 -2 93 93 WNW 20 31 29.82 1010 7 11 N/A
5:56 am 05:56 Cloudy 30 -1 28 -2 93 93 WNW 18 30 29.83 1010 7 11 N/A
6:15 am 06:15 Cloudy 28 -2 28 -2 100 100 W 20 31 29.83 1010 7 11 N/A
6:35 am 06:35 Cloudy 28 -2 28 -2 100 100 W 13 20 29.84 1011 7 11 N/A
6:36 am 06:36 Cloudy 28 -2 28 -2 100 100 WNW 13 20 29.84 1011 7 11 N/A
6:55 am 06:55 Cloudy 28 -2 27 -3 93 93 W 17 28 29.85 1011 10 16 N/A
6:56 am 06:56 Cloudy 28 -2 27 -3 93 93 W 16 26 29.85 1011 10 16 N/A
7:15 am 07:15 Mostly Cloudy 27 -3 27 -3 100 100 W 16 26 29.86 1011 10 16 N/A
7:35 am 07:35 Partly Cloudy 27 -3 25 -4 93 93 WNW 14 22 29.87 1011 10 16 N/A
7:36 am 07:36 Partly Cloudy 27 -3 25 -4 93 93 WNW 13 20 29.88 1012 10 16 N/A
7:55 am 07:55 Mostly Cloudy 27 -3 27 -3 100 100 W 17 28 29.88 1012 10 16 N/A
8:15 am 08:15 Mostly Cloudy 27 -3 27 -3 100 100 WNW 14 22 29.88 1012 10 16 N/A
8:35 am 08:35 Mostly Cloudy 25 -4 25 -4 100 100 WNW 13 20 29.89 1012 10 16 N/A
8:36 am 08:36 Mostly Cloudy 25 -4 25 -4 100 100 WNW 14 22 29.90 1013 10 16 N/A
8:55 am 08:55 Mostly Cloudy 27 -3 25 -4 93 93 WNW 13 20 29.91 1013 10 16 N/A
9:16 am 09:16 Mostly Cloudy 25 -4 23 -5 93 93 W 18 30 29.92 1013 10 16 N/A
9:35 am 09:35 Partly Cloudy 27 -3 23 -5 86 86 W 14 22 29.92 1013 10 16 N/A
9:36 am 09:36 Partly Cloudy 27 -3 23 -5 86 86 W 14 22 29.93 1013 10 16 N/A
9:55 am 09:55 Partly Cloudy 27 -3 21 -6 80 80 W 12 19 29.93 1013 10 16 N/A
10:16 am 10:16 Partly Cloudy 28 -2 25 -4 86 86 W 14 22 29.92 1013 10 16 N/A
10:35 am 10:35 Sunny 27 -3 21 -6 80 80 W 16 26 29.94 1014 10 16 N/A
10:36 am 10:36 Sunny 27 -3 21 -6 80 80 W 16 26 29.94 1014 10 16 N/A
10:55 am 10:55 Sunny 27 -3 19 -7 74 74 W 14 22 29.94 1014 10 16 N/A
11:15 am 11:15 Sunny 28 -2 19 -7 69 69 WNW 13 20 29.94 1014 10 16 N/A
11:16 am 11:16 Sunny 28 -2 21 -6 74 74 W 13 20 29.94 1014 10 16 N/A
11:35 am 11:35 Sunny 28 -2 21 -6 74 74 WNW 15 24 29.95 1014 10 16 N/A
11:36 am 11:36 Sunny 28 -2 19 -7 69 69 WNW 14 22 29.95 1014 10 16 N/A
11:55 am 11:55 Sunny 28 -2 21 -6 74 74 WNW 16 26 29.95 1014 10 16 N/A
12:16 pm 12:16 Sunny 28 -2 21 -6 74 74 W 16 26 29.96 1015 10 16 N/A
12:35 pm 12:35 Sunny 28 -2 21 -6 74 74 W 15 24 29.97 1015 10 16 N/A
12:36 pm 12:36 Sunny 28 -2 21 -6 74 74 W 16 26 29.97 1015 10 16 N/A
12:55 pm 12:55 Sunny 28 -2 19 -7 69 69 W 13 20 29.97 1015 10 16 N/A
1:15 pm 13:15 Sunny 28 -2 21 -6 74 74 WNW 14 22 29.97 1015 10 16 N/A
1:16 pm 13:16 Sunny 28 -2 21 -6 74 74 W 14 22 29.97 1015 10 16 N/A
1:35 pm 13:35 Sunny 28 -2 19 -7 69 69 WNW 15 24 29.97 1015 10 16 N/A
1:55 pm 13:55 Sunny 28 -2 21 -6 74 74 W 17 28 29.97 1015 10 16 N/A
2:15 pm 14:15 Sunny 28 -2 21 -6 74 74 WNW 15 24 29.97 1015 10 16 N/A
2:16 pm 14:16 Sunny 28 -2 21 -6 74 74 NW 14 22 29.97 1015 10 16 N/A
2:35 pm 14:35 Sunny 27 -3 19 -7 74 74 W 12 19 29.98 1015 10 16 N/A
2:55 pm 14:55 Sunny 27 -3 19 -7 74 74 WNW 12 19 29.98 1015 10 16 N/A
3:15 pm 15:15 Sunny 27 -3 19 -7 74 74 WNW 10 17 29.99 1015 10 16 N/A
3:16 pm 15:16 Sunny 27 -3 19 -7 74 74 NW 10 17 29.99 1015 10 16 N/A
3:35 pm 15:35 Sunny 27 -3 19 -7 74 74 NW 10 17 29.99 1015 10 16 N/A
3:55 pm 15:55 Sunny 27 -3 19 -7 74 74 WNW 13 20 30.00 1016 10 16 N/A
3:56 pm 15:56 Sunny 27 -3 19 -7 74 74 WNW 13 20 30.00 1016 10 16 N/A
4:15 pm 16:15 Sunny 27 -3 18 -8 69 69 WNW 9 15 29.99 1015 10 16 N/A
4:16 pm 16:16 Sunny 27 -3 18 -8 69 69 NW 9 15 29.99 1015 10 16 N/A
4:35 pm 16:35 Sunny 27 -3 18 -8 69 69 NW 9 15 29.99 1015 10 16 N/A
4:36 pm 16:36 Sunny 27 -3 18 -8 69 69 NW 12 19 29.99 1015 10 16 N/A
4:55 pm 16:55 Mostly Cloudy 27 -3 19 -7 74 74 NNW 9 15 29.98 1015 10 16 N/A
5:15 pm 17:15 Cloudy 25 -4 19 -7 80 80 NNW 12 19 29.97 1015 10 16 N/A
5:35 pm 17:35 Cloudy 25 -4 19 -7 80 80 WNW 9 15 29.99 1016 10 16 N/A
5:36 pm 17:36 Cloudy 25 -4 19 -7 80 80 NW 9 15 29.98 1015 10 16 N/A
5:55 pm 17:55 Cloudy 25 -4 19 -7 80 80 WNW 7 11 29.98 1015 10 16 N/A
6:15 pm 18:15 Cloudy 25 -4 19 -7 80 80 NW 7 11 30.00 1016 10 16 N/A
6:35 pm 18:35 Mostly Cloudy 25 -4 19 -7 80 80 W 6 9 30.01 1016 10 16 N/A
6:36 pm 18:36 Mostly Cloudy 25 -4 19 -7 80 80 WNW 6 9 30.01 1016 10 16 N/A
6:55 pm 18:55 Partly Cloudy 25 -4 19 -7 80 80 WNW 6 9 30.02 1017 10 16 N/A
7:15 pm 19:15 Partly Cloudy 25 -4 19 -7 80 80 W 5 7 30.03 1017 10 16 N/A
7:35 pm 19:35 Cloudy 25 -4 19 -7 80 80 W 6 9 30.04 1017 10 16 N/A
7:36 pm 19:36 Cloudy 25 -4 19 -7 80 80 W 6 9 30.03 1017 10 16 N/A
7:55 pm 19:55 Partly Cloudy 25 -4 19 -7 80 80 WNW 5 7 30.03 1017 10 16 N/A
8:15 pm 20:15 Clear 25 -4 19 -7 80 80 WNW 5 7 30.04 1017 10 16 N/A
8:35 pm 20:35 Partly Cloudy 25 -4 19 -7 80 80 WNW 5 7 30.04 1017 10 16 N/A
8:36 pm 20:36 Partly Cloudy 25 -4 19 -7 80 80 WNW 5 7 30.04 1017 10 16 N/A
8:55 pm 20:55 Partly Cloudy 25 -4 19 -7 80 80 NW 7 11 30.03 1017 10 16 N/A
9:15 pm 21:15 Partly Cloudy 25 -4 19 -7 80 80 NNW 3 6 30.04 1017 10 16 N/A
9:16 pm 21:16 Partly Cloudy 25 -4 19 -7 80 80 NNW 5 7 30.04 1017 10 16 N/A
9:35 pm 21:35 Partly Cloudy 25 -4 19 -7 80 80 NNW 5 7 30.04 1017 10 16 N/A
9:36 pm 21:36 Partly Cloudy 25 -4 19 -7 80 80 N 5 7 30.04 1017 10 16 N/A
9:55 pm 21:55 Partly Cloudy 23 -5 19 -7 86 86 NNW 3 6 30.05 1018 10 16 N/A
10:15 pm 22:15 Clear 23 -5 21 -6 93 93 NNW 7 11 30.06 1018 10 16 N/A
10:16 pm 22:16 Clear 23 -5 21 -6 93 93 NNW 7 11 30.07 1018 10 16 N/A
10:35 pm 22:35 Clear 23 -5 21 -6 93 93 NNW 7 11 30.06 1018 10 16 N/A
10:36 pm 22:36 Clear 23 -5 21 -6 93 93 NNW 7 11 30.06 1018 10 16 N/A

Powered by AerisWeather